Preview of NWS' New Version of Forecast
This preview is not operational and should not be used for support decisions.

Regional Weather Roundup (RWR)

Issued by National Weather Service (NWS)

                            
000
ASUS43 KMKX 211310
RWRWI 

WISCONSIN REGIONAL WEATHER ROUNDUP
NATIONAL WEATHER SERVICE MILWAUKEE/SULLIVAN WI
700 AM CST THU FEB 21 2019

NOTE: "FAIR" INDICATES FEW OR NO CLOUDS BELOW 12,000 FEET WITH NO
SIGNIFICANT WEATHER AND/OR OBSTRUCTIONS TO VISIBILITY.

WIZ001-002-006>008-014>016-023>028-211400-
NORTHWEST WISCONSIN
  
CITY           SKY/WX    TMP DP  RH WIND       PRES   REMARKS
SUPERIOR ARPT  FAIR      17  15  91 W6        29.91R WCI   9          
ASHLAND        CLOUDY    17  15  92 SW9       29.88R WCI   6          
HAYWARD        LGT SNOW  21  18  88 W7        29.88R FOG     WCI  12  
SIREN          CLOUDY    14  12  89 SW7       29.94R FOG     WCI   4  
CUMBERLAND     LGT SNOW  12   9  85 SW7       29.93R WCI   2          
RICE LAKE      LGT SNOW  13   3  64 SW6       29.96R WCI   4          
CHETEK         LGT SNOW  11   8  87 SW6       29.97R WCI   2          
LADYSMITH      FLURRIES  16  13  87 SW9       29.93R WCI   5          
EAU CLAIRE     LGT SNOW  10   6  84 SW9       29.99R FOG     WCI  -3  
MENOMONIE      LGT SNOW   9   5  85 SW6       30.00R WCI  -1          
NEW RICHMOND   LGT SNOW  12   8  85 SW6       29.98R WCI   2          
OSCEOLA        LGT SNOW  13  11  90 SW8       30.01R WCI   2          
$$
 
WIZ003>005-009-010-017-018-211400-
NORTH CENTRAL WISCONSIN
  
CITY           SKY/WX    TMP DP  RH WIND       PRES   REMARKS
MANITOWISH WTR NOT AVBL                                               
ARBOR VITAE    LGT SNOW  22  19  89 W9        29.82R WCI  12          
WOODRUFF       LGT SNOW  22  19  89 W9        29.82R WCI  12          
RHINELANDER    NOT AVBL                                               
EAGLE RIVER    LGT SNOW  22  19  88 SW10      29.79R WCI  11          
LAND O LAKES   FLURRIES  23  19  87 W6        29.81R WCI  15          
PHILLIPS       LGT SNOW  17  15  91 SW8       29.87R WCI   7          
TOMAHAWK       LGT SNOW  19  15  85 W5        29.88R WCI  12          
MEDFORD        LGT SNOW  12   8  85 SW9       29.91R WCI   0          
MERRILL        FLURRIES  18  14  83 W13       29.89R WCI   5          
$$
 
WIZ029-030-035-036-043>047-211400-
CENTRAL WISCONSIN
  
CITY           SKY/WX    TMP DP  RH WIND       PRES   REMARKS
WAUSAU         NOT AVBL                                               
MOSINEE        LGT SNOW  14  10  85 SW12      29.94R WCI   0          
MARSHFIELD     NOT AVBL                                               
STEVENS POINT  MIX PCPN  13   9  85 W9        29.97R WCI   1          
WAUPACA        FAIR      18  11  74 SW12G17   29.98R WCI   6          
WAUTOMA        NOT AVBL                                               
WISC RAPIDS    NOT AVBL                                               
CAMP DOUGLAS   CLEAR     10   7  85 W3        30.00R                  
$$
 
WIZ011>013-019>022-031-037>040-048>050-211400-
NORTHEAST WISCONSIN
  
CITY           SKY/WX    TMP DP  RH WIND       PRES   REMARKS
ANTIGO         LGT SNOW  18  14  85 W12       29.88R WCI   5          
SHAWANO        FLURRIES  22  15  74 SW10      29.93R WCI  11          
OCONTO         FAIR      20  14  77 SW9G16    29.94R WCI   9          
STURGEON BAY   NOT AVBL                                               
GREEN BAY      CLOUDY    22  13  68 W15       29.97R WCI   9          
MANITOWOC      FAIR      19  14  81 W12       29.97R WCI   7          
APPLETON       MOCLDY    18   9  68 W16       29.95R WCI   3          
CLINTONVILLE   CLOUDY    19  11  74 SW10      29.95R WCI   7          
OSHKOSH        FAIR      17  11  77 W10       29.98R HAZE    WCI   5  
$$
 
WIZ032>034-041-042-053>061-211400-
SOUTHWEST WISCONSIN
  
CITY           SKY/WX    TMP DP  RH WIND       PRES   REMARKS
LA CROSSE      FAIR      11   6  81 W3        30.05R                  
SPARTA         FAIR      12   8  85 CALM      30.04R                  
VIROQUA        FAIR      10   9  94 W8        29.99R WCI  -2          
BOSCOBEL       FAIR      13   7  77 SW9       30.07R WCI   1          
PRAIRIE DU CHI FAIR      13   7  76 W8        30.08R WCI   1          
PLATTEVILLE    FAIR      12  10  94 SW8       30.05R WCI   0          
$$

WIZ056-057-062-063-064-067-068-211400-
SOUTH CENTRAL WISCONSIN
  
CITY           SKY/WX    TMP DP  RH WIND       PRES   REMARKS
REEDSBURG      FAIR      15   9  77 W13       30.01R WCI   0          
BARABOO/DELLS  FAIR      14   8  78 W7        30.00R WCI   4          
LONE ROCK      FAIR      15  10  80 W9        30.04R WCI   3          
MINERAL POINT  FAIR      14  12  92 W8        30.01R WCI   3          
MADISON        FAIR      14   9  80 VRB5      30.01R WCI   6          
MIDDLETON      FAIR      17  12  80 W5        30.02R WCI  10          
WATERTOWN      FAIR      17  13  83 SW5       30.02R WCI  10          
MONROE         FAIR      17  11  79 MISG      30.03R                  
JANESVILLE     MOCLDY    21  16  79 W15       30.05R WCI   8          
$$
 
WIZ051-052-058>065-066-070>072-211400-
SOUTHEAST WISCONSIN
  
CITY           SKY/WX    TMP DP  RH WIND       PRES   REMARKS
MILWAUKEE      FAIR      23  13  65 SW10G20   30.02R WCI  12          
WAUKESHA       CLEAR     18  12  79 W14       30.02R WCI   4          
MILWAUKEE/TIMM FAIR      21  12  68 W9G16     30.02R WCI  11          
RACINE         FAIR      22  14  71 SW8       30.05R WCI  12          
KENOSHA        FAIR      23  16  74 SW12      30.04R WCI  12          
FOND DU LAC    FAIR      17  10  74 SW6       29.99R WCI   9          
SHEBOYGAN      FAIR      18  11  74 W13       29.98R WCI   5          
WEST BEND      FAIR      19  14  79 W12G17    29.99R WCI   7          
JUNEAU         FAIR      15  11  82 SW7       30.01R WCI   6          
$$

LSZ147-162-211400-
LAKE SUPERIOR
  
STATION/POSITION TIME  TEMP    WIND        PRES    WAVE
                       AIR SEA DIR/SP/G            HT/PER
                 (UTC) (F)     (DEG/KT/KT) (MB)    (FT/S)
DEVILS ISLAND    1200   22     290/  8/  9 1011.3R
SAXON HARBOR     1240   22     210/  6/ 10 1011.2R
$$
 
LMZ867-665-643>646-211400-
LAKE MICHIGAN
  
STATION/POSITION TIME  TEMP    WIND        PRES    WAVE
                       AIR SEA DIR/SP/G            HT/PER
                 (UTC) (F)     (DEG/KT/KT) (MB)    (FT/S)
NORTHPORT PIER   1240   24     230/  4/  9 1011.5R
KEWAUNEE LAKESHO 1236   22     250/ 10/ 16 1013.3R
SHEBOYGAN LAKESH 1300   22     240/ 11/ 13 1016.3R
PORT WASHINGTON  1240   22     260/  7/ 10 1016.9R
MILWAUKEE LAKESH 1250   24     250/  4/  7   N/A
KENOSHA   LAKESH 1200   25     240/  8/ 14 1017.3
$$

TC  - TEMPERATURE IN CELSIUS
VSB - VISIBILITY IN STATUTE MILES
WCI - WIND CHILL INDEX
HX  - HEAT INDEX